Location: Unspecified
(0.0000°N, 0.0000°E)
Time: 11:10:18
(UTC+00:00)

Vanguard 2 - Pass Details

Date: 24 November 2019
Orbit: 553 x 2938 km, 32.9° (Epoch: 14 December)

Event Time Altitude Azimuth Distance (km) Brightness Sun altitude
Rises 23:00:30 0° 212° (SSW) 5,268 12.1 -66.5°
Reaches altitude 10° 23:04:55 10° 197° (SSW) 4,657 11.7 -67.0°
Enters shadow 23:12:40 22° 162° (SSE) 4,277 11.3 -67.7°
Maximum altitude 23:15:01 23° 151° (SSE) 4,352 - -68.0°
Drops below altitude 10° 23:27:11 10° 106° (ESE) 5,741 - -68.8°
Exits shadow 23:27:21 10° 105° (ESE) 5,768 11.9 -68.8°
Sets 23:33:28 0° 93° (E) 6,783 12.3 -69.1°
